sat.trackr.live / text

‹ back to catalog

STARLINK-5349

NORAD 56512 · 2023-065K

PAYLOAD ACTIVE UNKNOWN

§ Identity

Operator
Country
US
Launch date
2023-05-14
Launch site
AFETR
Launch vehicle
Mass (kg)
RCS (m²)

Purposes: comms

External: N2YO · Heavens-Above · Gunter

§ Orbital elements

Epoch: 2026-05-24T23:58:58.295712Z

Period
94.27 min
Inclination
43.0033°
Eccentricity
0.0001232
Mean motion
15.27587343 rev/d
Perigee alt
482.2 km
Apogee alt
483.9 km
Semi-major
6,861.2 km
B*
9.7536e-5
RAAN
141.2297°
Arg perigee
271.7674°
Mean anomaly
88.3037°
Rev number
16,827

§ Raw data

STARLINK-53491 56512U 23065K   26144.99928583  .00002423  00000+0  97536-4 0  99992 56512  43.0033 141.2297 0001232 271.7674  88.3037 15.27587343168270

JSON: /api/v1/satellites/56512 · /tle

For live sub-satellite position, see the globe view (requires WebGL).

§ Visibility from observer

Set your observer location to see the next 7 days of passes ≥ 10°. The values pass through the URL so the page stays shareable.

No JS? Fill the form by hand. The geolocation button needs JavaScript.